{"data":{"norad_id":57457,"intl_designator":"2023-107A","name":"STARLINK-30165","alt_names":[],"object_type":"PAYLOAD","status":"ACTIVE","operator":null,"country":"US","launch_date":"2023-07-28","launch_site_code":"AFETR","launch_vehicle":null,"mission":null,"orbit_class":"UNKNOWN","rcs_meters":null,"size_class":null,"mass_kg":null,"dimensions":null,"purposes":["comms"],"wikipedia_slug":null,"has_3d_model":false,"image_url":null,"decayed_at":null,"tle_current":{"epoch":"2026-05-25T01:16:34.938624Z","epoch_age_seconds":73742,"freshness":"FRESH","line1":"1 57457U 23107A   26145.05318216 -.00001961  00000+0 -61755-4 0  9991","line2":"2 57457  43.0026 265.0426 0001455 259.8778 100.1910 15.27569394156815","mean_motion":15.27569394,"eccentricity":0.0001455,"inclination_deg":43.0026,"raan_deg":265.0426,"arg_perigee_deg":259.8778,"mean_anomaly_deg":100.191,"bstar":-6.1755e-5,"rev_number":15681,"period_min":94.267403212976,"perigee_km":482.08254720507,"apogee_km":484.07916160071,"semimajor_km":6861.2178544029,"source":"CELESTRAK","updated_at":"2026-05-25T13:38:18.322994Z"}}}